Theta_e
303 297 294 295 297 299 300 299 300 301 301 299 301 314 315 315 317 322 326 329 332 325 322 322 325 324 326 327 330 331 333 331 331 330 330 331 331 329 330 331 330 331 331 336 338 339 340 341 343 343 341 342 344 346 348 348 348 349 349 350 349 349 350 350 349 348 347 346 345 346 347 346 349 351 353 355 355 358 359 361 361 361 361 361 363 361
303 295 295 298 298 299 299 299 300 300 300 299 296 306 313 316 314 320 325 329 331 323 319 324 325 325 326 329 329 331 331 328 328 329 329 329 331 329 329 329 330 330 333 336 336 337 338 340 342 342 340 342 340 344 347 347 347 348 349 349 348 348 349 350 349 349 348 347 346 346 346 347 349 352 352 351 353 357 360 361 361 362 361 361 361 360
297 295 298 299 300 301 300 299 299 299 299 298 296 296 311 312 321 326 326 328 327 323 318 325 322 323 325 328 330 330 330 331 332 331 330 329 329 328 328 328 329 328 329 333 334 335 336 338 340 340 339 339 342 344 346 346 347 347 347 348 348 348 349 349 349 348 347 347 348 347 346 349 349 353 354 353 355 358 359 361 362 362 361 361 360 360
295 296 299 301 301 300 300 300 298 298 298 295 294 296 301 317 317 311 323 325 324 321 319 323 320 322 327 329 329 331 332 332 335 334 334 334 331 328 328 327 328 327 328 330 331 332 335 336 338 338 337 338 341 344 345 345 345 347 348 346 347 348 348 349 350 351 348 350 348 348 349 350 351 350 355 354 355 357 359 359 361 361 361 361 361 361
295 298 301 301 301 299 298 299 297 295 293 295 295 295 310 318 317 318 319 323 324 325 326 323 319 319 323 322 324 329 333 333 334 334 336 338 334 334 336 336 329 327 328 329 329 331 333 334 336 336 337 339 340 343 343 344 345 347 346 347 348 348 348 349 354 350 349 353 347 348 349 352 351 352 350 350 351 355 358 358 358 359 360 361 360 360
297 301 303 301 300 299 298 296 296 295 292 292 294 297 312 320 318 321 322 319 315 314 321 318 306 309 320 322 322 326 328 328 332 328 330 333 335 333 333 334 331 329 329 328 328 330 332 334 335 335 336 338 340 341 343 345 346 346 346 348 348 347 348 349 352 349 351 352 345 344 344 343 343 343 344 345 348 352 354 356 358 359 361 362 359 358
298 303 302 300 299 298 297 296 296 297 291 292 292 297 311 319 320 320 318 316 309 306 317 320 304 301 314 318 320 323 325 326 329 329 330 330 333 332 332 333 335 328 328 328 328 330 332 333 333 334 335 338 339 341 344 345 346 346 347 348 348 347 347 349 351 350 351 348 344 345 344 344 344 343 344 346 350 353 354 356 355 358 360 360 360 359
301 300 299 300 299 297 295 295 298 297 292 290 294 304 319 319 320 319 318 316 311 320 320 320 310 301 303 314 323 324 323 324 326 327 330 331 331 331 332 333 335 334 328 327 327 329 332 332 333 332 335 338 340 341 343 344 345 345 347 347 348 348 350 349 350 350 350 347 344 343 344 346 344 345 345 346 349 353 355 353 354 356 358 359 359 358
299 299 298 297 297 295 295 297 299 298 294 293 298 318 317 320 321 320 317 312 313 313 308 314 314 302 299 309 322 323 318 321 322 325 328 331 331 331 331 333 335 337 330 327 327 329 331 331 332 333 335 339 340 341 342 343 344 346 347 348 348 348 349 348 349 350 349 349 346 344 344 344 346 345 346 349 352 352 355 351 351 353 356 356 357 358
301 300 300 300 297 295 298 299 299 299 295 300 300 318 320 321 322 320 316 310 311 306 302 309 314 299 297 311 316 321 320 320 322 325 328 330 331 331 331 333 337 337 336 335 328 330 331 332 333 334 336 338 340 341 343 343 344 346 347 347 347 347 348 348 348 350 349 348 349 344 342 343 343 346 344 346 347 349 350 350 350 351 352 354 354 356
300 310 312 300 298 300 300 300 300 299 302 300 302 313 314 315 314 314 311 307 307 300 303 312 314 306 296 308 315 315 318 322 324 327 330 331 332 331 332 333 337 336 336 336 330 330 331 333 333 334 335 337 339 340 341 342 343 345 346 346 346 347 348 348 347 348 349 348 348 345 343 343 343 344 344 344 344 345 346 348 348 349 351 352 353 356
299 300 301 302 306 303 302 300 301 302 302 301 298 304 309 306 308 306 305 307 297 295 300 311 313 310 296 299 313 320 323 327 326 326 328 330 331 331 331 333 337 337 336 337 333 329 331 331 332 334 334 335 337 338 339 341 342 344 345 346 345 346 347 347 347 347 348 349 348 346 344 344 345 346 345 344 343 345 346 346 347 348 349 350 352 353
293 296 298 300 311 303 299 297 297 299 298 298 298 309 304 296 298 296 297 297 294 296 301 309 312 306 303 304 313 319 321 326 328 329 329 331 332 332 332 332 336 337 337 337 335 329 330 330 331 332 333 334 335 336 337 341 342 343 344 345 344 344 346 347 346 346 347 348 347 347 345 345 347 346 346 344 344 346 346 346 346 347 347 349 350 352
290 295 299 300 302 306 301 295 292 293 294 296 296 302 299 292 293 290 292 295 293 301 304 309 312 303 305 309 315 317 322 326 329 330 331 333 333 333 333 333 336 338 338 337 336 330 329 331 332 333 333 334 334 335 337 340 342 342 344 344 343 343 345 347 345 346 347 347 347 348 348 346 349 346 346 344 344 347 347 347 347 348 349 349 350 353
287 290 294 299 296 302 301 299 296 291 294 297 297 303 299 300 295 290 291 291 294 296 304 311 306 297 301 304 317 319 323 327 329 331 332 334 335 335 336 336 336 337 337 339 339 333 330 331 332 333 333 333 334 335 337 339 341 341 342 344 344 342 344 346 345 347 347 347 347 347 349 349 348 348 347 345 346 348 348 349 349 349 350 351 351 353
291 288 294 300 301 302 302 302 301 299 297 297 298 300 301 302 299 296 297 296 294 300 301 303 300 305 305 316 320 323 325 328 330 330 332 332 334 335 334 335 335 337 336 338 337 337 339 332 332 334 334 334 334 335 336 339 341 341 341 344 344 343 344 346 346 347 348 347 348 347 346 348 351 353 350 349 351 349 349 351 351 350 350 353 352 353
292 288 296 299 301 301 303 304 304 302 292 296 298 293 296 303 304 296 300 301 304 301 299 304 303 306 312 315 319 322 324 325 328 330 331 332 333 334 333 334 336 334 338 338 338 339 340 339 338 335 334 334 335 335 335 338 341 341 341 343 343 344 344 346 347 347 348 348 347 347 347 347 350 352 349 348 349 350 350 352 352 351 352 353 354 354
288 290 294 298 299 302 303 304 304 303 300 298 294 296 300 304 301 294 289 292 291 292 296 301 300 301 301 301 316 321 321 323 325 327 329 331 332 332 332 332 335 337 338 340 340 341 342 342 341 341 338 336 336 336 336 338 342 342 342 343 343 344 344 345 346 347 348 348 347 347 348 347 349 352 353 350 350 351 351 350 352 352 352 353 355 356
294 287 291 296 298 300 303 303 301 305 303 298 297 302 298 294 295 295 294 289 290 292 294 298 301 301 300 303 312 316 317 318 320 324 326 328 330 329 330 332 335 337 338 339 340 340 342 342 341 342 341 342 341 339 338 339 342 343 343 344 344 344 346 347 347 347 349 349 349 349 349 349 348 350 352 352 352 352 351 351 351 352 352 353 354 355
295 288 289 296 298 299 298 296 292 295 302 303 301 299 301 298 294 293 292 290 299 294 296 296 299 296 304 306 316 315 318 318 322 324 325 327 328 329 329 332 334 334 336 338 339 340 342 344 345 344 343 342 343 343 342 343 343 343 344 345 345 346 347 348 348 348 348 350 350 351 351 350 349 350 351 352 352 353 351 351 351 351 351 352 354 353
294 295 287 292 297 298 295 293 292 294 294 298 294 293 298 298 299 298 296 296 297 296 296 296 295 298 304 312 315 317 317 320 322 321 321 322 326 329 330 331 332 334 336 337 338 340 343 345 346 346 347 347 346 348 346 345 348 351 350 348 349 346 348 349 350 350 350 352 351 352 351 351 351 350 351 351 352 353 352 352 353 352 352 352 351 352
295 291 290 290 291 289 292 295 298 297 297 295 292 295 292 294 294 290 289 296 302 298 294 296 291 296 307 320 318 318 320 321 322 320 320 320 322 324 327 330 331 332 335 338 340 342 345 346 346 347 347 347 347 346 346 348 348 348 347 347 347 348 349 350 350 350 350 349 349 350 349 348 347 348 350 351 349 350 351 351 352 352 352 351 350 350
299 295 295 291 291 294 296 299 301 299 299 297 295 296 295 293 291 286 285 291 301 302 305 299 297 297 312 318 319 319 320 321 321 321 320 320 321 322 324 326 328 330 333 339 341 341 342 342 344 345 346 345 346 346 347 345 345 347 347 347 346 347 348 350 350 350 350 348 348 348 347 347 347 347 348 348 347 349 350 350 350 351 351 351 351 350
312 294 293 295 295 296 297 297 301 301 296 295 294 294 294 293 296 292 289 293 298 300 298 295 296 301 313 318 318 318 319 320 320 320 319 320 321 322 322 323 324 324 327 330 334 338 340 339 340 340 341 342 343 345 346 343 345 345 346 347 346 347 348 349 349 350 350 349 349 348 347 347 347 348 348 348 346 346 345 346 346 349 350 350 350 350
295 295 294 291 288 289 290 294 295 299 299 294 293 294 294 295 298 296 299 300 299 300 299 298 294 301 310 319 318 318 319 318 318 320 321 319 320 320 321 321 322 323 324 325 326 330 334 336 336 337 338 339 343 344 344 343 343 344 345 346 346 347 348 349 349 348 349 350 349 348 347 347 347 347 347 348 348 347 347 346 344 346 347 348 349 349
296 298 295 288 284 283 282 281 286 291 293 295 296 294 296 294 297 297 299 296 290 299 300 298 299 307 313 316 316 317 317 316 318 319 320 320 319 319 319 320 320 321 321 323 325 326 327 329 330 331 332 334 337 339 341 344 344 344 344 345 346 346 347 348 349 349 348 349 349 348 347 347 347 347 347 348 348 349 349 348 346 345 345 346 347 347
298 302 297 293 289 288 288 289 293 304 293 291 293 295 296 295 299 298 296 294 293 297 298 299 304 307 310 313 313 315 315 314 315 317 317 318 318 318 318 318 318 319 320 322 323 324 325 325 326 328 330 331 334 338 339 340 343 345 344 345 345 346 347 348 348 348 347 348 348 347 347 347 347 347 348 349 349 350 350 350 349 347 345 347 347 345
298 295 298 298 297 297 297 296 296 301 294 295 295 295 297 296 296 298 294 292 301 301 293 299 308 306 308 312 313 313 314 314 315 316 316 317 317 317 317 317 319 316 317 319 320 320 321 322 324 325 327 328 329 332 334 338 341 342 343 343 345 345 346 347 348 346 346 346 345 345 346 347 348 349 349 349 349 350 351 351 350 349 348 347 346 349
294 294 300 298 295 296 296 295 294 297 296 298 296 297 296 297 298 302 301 302 304 298 297 303 308 307 309 313 314 314 314 314 315 316 317 317 317 316 315 314 314 314 315 316 317 319 320 321 322 323 325 327 330 330 331 333 336 339 342 344 345 346 347 347 346 345 345 344 344 344 345 345 348 349 349 351 349 348 348 349 348 349 348 349 349 351
293 294 302 298 295 295 296 296 295 294 296 297 297 298 298 300 306 304 305 306 303 299 304 308 308 306 310 313 314 315 317 316 316 316 316 316 315 315 313 313 312 313 314 315 316 317 318 319 321 322 324 326 328 330 332 333 335 340 342 343 344 345 346 346 346 347 347 346 346 346 347 346 348 349 348 347 346 345 345 346 347 349 348 350 351 351
293 293 304 298 293 293 295 297 296 296 297 296 297 298 298 298 306 307 307 308 310 308 309 309 306 306 308 314 316 318 317 317 316 314 314 314 314 314 312 311 311 311 312 313 314 315 316 317 319 321 323 325 327 329 331 332 334 336 339 341 343 343 345 346 345 345 346 345 346 347 347 347 347 348 347 348 348 347 348 348 347 348 350 350 350 348
295 291 299 297 290 290 293 294 294 295 296 297 296 297 297 297 295 300 303 307 305 304 306 306 304 303 309 315 316 316 315 315 313 313 313 313 313 312 311 310 311 311 312 312 313 313 314 316 317 319 321 323 325 327 329 330 333 333 332 333 335 340 344 343 343 341 343 344 345 345 346 346 345 345 346 345 345 346 348 350 350 347 345 346 348 348
294 289 290 293 287 288 292 293 293 292 291 292 293 295 297 298 300 304 309 311 310 310 306 303 304 310 312 316 313 313 314 314 313 313 312 311 311 311 310 311 311 312 312 313 314 313 312 314 316 318 319 321 322 322 325 330 331 329 329 328 329 332 333 335 337 338 339 340 340 341 343 344 343 343 343 344 344 345 346 347 346 346 347 348 350 350
296 291 289 292 288 288 293 293 293 287 284 287 296 300 301 302 305 305 304 307 309 309 306 308 310 312 314 314 312 312 313 313 314 312 313 312 310 310 310 311 312 313 313 313 313 313 313 314 315 317 318 319 320 323 325 329 330 329 328 327 327 327 327 328 329 330 331 334 335 337 338 340 342 341 342 343 343 343 344 345 345 347 348 350 351 350
292 290 289 291 290 290 293 292 289 282 287 297 302 303 303 306 309 307 306 306 307 310 311 310 311 312 313 313 313 311 309 310 310 310 311 311 311 310 309 310 311 313 313 313 313 314 314 314 315 316 317 319 322 322 322 322 325 328 328 327 326 327 327 327 327 327 328 328 330 332 334 335 336 337 340 342 342 341 341 342 342 342 343 347 347 347
290 290 292 289 287 289 290 287 281 283 296 300 300 303 306 302 301 306 305 307 307 307 310 310 310 307 307 307 308 309 309 309 310 310 310 311 311 310 309 309 310 311 311 313 314 315 315 315 314 316 319 324 321 320 319 319 323 325 324 326 327 327 325 323 322 321 321 321 323 324 327 330 332 333 334 335 338 338 337 338 340 341 342 346 342 341
294 289 288 287 289 282 286 287 288 295 294 295 297 299 299 294 295 298 296 301 306 308 308 307 305 306 306 306 308 308 309 309 306 306 310 310 310 311 310 309 309 309 310 312 314 313 314 314 315 318 319 318 318 318 319 320 320 319 319 319 319 319 319 319 319 320 320 320 321 323 323 326 327 330 331 330 329 330 334 337 338 339 343 343 342 341
291 290 289 285 287 284 282 282 284 285 284 290 297 301 305 304 302 301 301 299 305 308 310 306 305 305 305 306 307 308 309 305 301 302 307 310 311 309 309 309 309 309 309 310 311 312 313 314 316 318 317 317 318 318 319 319 320 319 318 318 319 319 319 320 319 320 321 320 321 321 322 324 325 325 324 323 323 326 328 331 335 337 340 341 340 340
294 291 288 286 286 283 281 278 280 282 287 293 298 302 302 299 299 304 299 294 302 308 311 309 308 308 306 305 306 308 306 300 299 302 305 309 309 308 307 306 307 307 308 309 310 311 313 314 315 315 316 316 316 317 319 319 318 317 317 317 316 317 316 317 319 319 319 320 321 321 322 323 325 324 322 321 322 325 325 327 331 335 338 337 338 339
290 289 284 282 284 285 281 279 280 284 290 298 301 301 301 300 303 299 289 289 299 308 311 311 310 310 310 311 310 306 302 300 300 303 307 309 308 306 305 306 306 307 308 309 310 311 312 314 314 313 313 313 314 318 318 319 319 320 316 316 316 315 316 316 317 317 318 320 321 321 323 322 324 324 322 320 321 322 324 328 326 326 330 333 336 337
287 288 284 282 283 288 289 280 282 285 296 301 301 301 301 303 298 288 281 289 300 307 310 310 311 312 311 310 309 305 306 305 305 306 308 306 304 305 306 307 307 308 309 310 312 317 311 312 312 312 313 314 316 318 318 317 315 315 317 315 313 314 315 316 317 317 318 319 320 321 321 320 321 322 321 321 321 323 324 322 322 322 325 327 331 334
282 286 288 282 283 282 280 281 281 282 290 298 301 302 301 297 285 282 290 297 300 305 309 311 311 311 312 311 310 311 313 314 313 309 309 306 305 305 307 308 310 311 313 316 317 314 310 310 310 311 311 313 316 317 315 314 314 313 313 312 312 313 315 316 316 317 318 319 319 320 320 320 322 323 322 323 323 320 319 321 321 322 323 324 326 327
287 283 281 283 285 283 281 281 279 277 292 302 301 297 299 290 286 289 296 300 303 303 309 310 311 311 312 311 311 312 313 311 307 306 304 304 306 307 308 307 307 308 309 309 311 314 311 309 309 310 310 311 313 314 316 315 314 313 311 310 311 314 314 316 316 317 318 319 317 319 319 320 320 321 321 322 322 320 319 319 320 321 323 322 323 323
290 282 280 281 287 279 281 279 282 287 291 299 299 292 296 299 299 299 298 298 300 303 309 310 310 311 312 310 307 306 307 306 305 304 304 305 306 306 306 306 307 308 308 310 310 311 312 308 308 309 309 311 312 312 313 314 313 314 313 308 312 314 315 315 316 316 316 317 315 315 317 319 320 319 318 319 319 320 318 318 319 320 321 320 320 319
291 288 284 285 289 288 286 285 289 293 295 298 302 299 299 303 305 304 300 299 300 302 303 309 308 305 305 307 305 304 303 304 304 305 305 305 305 306 306 306 307 307 308 308 309 312 309 307 307 307 308 308 310 311 311 312 313 313 310 309 314 314 312 315 317 315 313 312 312 314 314 315 316 316 315 316 317 317 318 317 318 317 318 318 316 316
298 297 293 292 292 294 294 295 298 298 298 302 301 302 301 302 304 302 301 300 301 301 304 305 305 307 308 309 307 307 305 304 304 304 305 306 306 306 308 307 308 308 308 308 308 309 308 308 307 307 307 307 309 310 312 310 310 310 309 311 313 312 313 316 316 315 312 311 312 311 313 313 314 314 313 315 315 317 316 316 317 317 316 315 315 316
296 297 293 291 294 288 285 291 297 298 299 301 301 302 302 302 302 303 301 300 301 302 304 307 308 308 309 311 309 308 308 310 305 305 305 305 306 305 305 305 306 306 307 306 308 309 306 307 307 307 308 307 307 309 309 308 308 309 309 311 310 311 313 314 315 314 311 309 310 311 312 312 313 312 312 312 312 313 315 314 314 314 316 314 313 314
292 299 294 294 293 289 290 294 298 299 301 302 301 301 301 302 302 303 303 303 302 303 303 303 305 305 307 306 308 308 308 310 309 305 304 305 304 304 304 304 304 304 306 307 307 307 305 305 305 307 307 306 305 307 307 307 306 306 307 308 309 309 312 314 315 311 308 309 310 311 314 313 318 315 311 311 312 311 311 312 315 313 313 313 313 314
296 302 291 292 292 292 294 295 296 298 300 299 301 302 302 303 301 301 302 302 302 302 302 303 303 303 304 304 306 307 307 307 306 305 304 304 304 303 303 303 304 304 305 305 305 306 303 304 306 307 308 306 304 305 305 305 306 307 306 307 308 309 311 313 313 311 308 309 308 309 315 315 312 311 312 310 311 311 311 312 313 312 312 313 316 318
297 292 293 294 291 288 291 293 297 293 291 297 299 302 303 304 302 302 302 301 302 301 302 302 302 303 304 305 305 306 305 305 306 306 305 305 304 304 303 304 304 304 304 305 306 303 305 306 305 307 306 303 303 304 304 304 305 306 307 307 308 309 311 311 311 307 307 308 308 310 313 313 311 310 313 311 310 310 311 316 311 310 311 312 319 315
295 293 292 290 286 288 293 293 295 294 292 296 299 303 304 305 303 304 303 302 303 302 303 301 301 301 302 303 305 305 304 305 304 305 305 304 304 304 304 304 303 303 304 304 303 302 304 305 308 307 306 304 306 306 306 305 305 304 306 307 307 308 308 308 309 308 306 309 308 312 314 312 311 311 310 309 309 309 310 309 310 305 305 307 310 306
Wind_Speed
4 5 6 7 8 7 3 5 5 1 1 1 1 7 10 10 6 1 2 6 10 8 4 4 8 11 13 13 10 12 11 7 8 11 10 6 5 7 11 12 11 11 12 10 12 12 12 12 11 10 8 9 9 9 9 9 8 8 8 7 8 7 6 6 5 5 5 4 4 3 6 5 5 5 4 4 4 4 4 4 4 3 4 3 3 3
3 5 8 8 5 6 5 4 4 0 1 0 3 3 5 8 8 3 3 8 9 8 2 4 9 10 13 11 10 9 12 14 15 12 10 8 5 6 9 12 12 10 8 11 10 11 11 11 11 10 8 8 10 9 10 10 9 8 7 8 8 6 6 6 6 6 6 5 6 6 6 4 5 5 5 5 4 5 4 4 4 4 3 3 3 2
4 8 8 4 6 3 1 3 2 3 1 1 3 2 6 2 4 6 8 9 7 5 3 7 8 8 11 10 9 11 12 11 12 14 11 8 5 8 6 9 11 9 10 11 12 12 11 12 12 10 9 10 12 12 12 10 9 8 7 7 7 6 6 6 6 6 6 4 5 5 4 6 4 3 5 6 5 5 5 5 4 4 4 3 3 3
2 8 8 5 1 1 1 1 3 1 1 2 1 3 5 7 8 1 5 9 6 3 7 7 9 6 5 7 10 8 5 5 8 8 3 2 6 9 10 5 11 11 12 13 13 14 12 12 12 10 10 10 9 10 10 10 10 8 7 6 7 7 6 6 6 6 5 6 5 4 7 6 6 5 3 2 3 4 4 4 4 3 4 3 3 3
7 4 2 4 2 3 4 2 2 2 4 1 3 3 3 8 4 4 8 7 5 7 11 11 6 1 3 6 7 7 5 6 5 5 1 2 3 3 3 2 5 12 12 13 12 13 13 13 13 13 11 10 10 11 11 11 10 8 9 8 8 7 7 5 6 6 5 5 3 3 3 3 3 4 4 4 3 4 5 4 3 5 4 4 3 3
7 7 1 1 2 1 2 4 3 4 3 1 4 8 6 8 7 8 12 11 3 2 5 14 3 4 6 5 5 6 7 9 7 10 7 2 3 6 6 5 4 8 11 13 13 14 14 14 12 11 12 11 11 11 11 11 11 10 9 8 7 6 5 6 5 6 6 6 6 5 5 5 3 4 5 6 7 5 5 6 4 3 4 4 3 3
5 4 2 4 3 2 2 4 3 6 4 1 5 8 7 8 9 14 12 8 6 7 9 4 6 3 2 6 8 5 8 10 10 12 11 8 6 7 7 5 4 8 10 10 11 12 13 14 13 12 13 13 12 12 10 9 10 10 10 9 8 7 6 5 5 5 5 5 6 6 6 6 6 6 4 3 4 6 5 4 5 5 4 4 4 3
2 4 3 2 2 3 3 7 3 7 5 3 3 5 8 10 14 16 16 9 2 4 7 6 2 4 3 6 5 7 9 10 10 10 10 9 8 10 9 6 5 6 10 11 12 14 15 15 15 15 14 12 13 11 10 9 8 10 9 9 9 7 7 5 4 5 5 6 5 5 4 5 6 6 6 5 5 4 4 4 5 4 4 4 4 4
4 5 5 4 3 4 7 6 2 8 5 5 1 9 11 13 15 15 11 6 4 7 5 8 3 1 1 2 6 11 12 13 14 14 15 13 12 12 12 8 7 4 7 10 13 14 15 15 15 14 13 12 11 11 11 11 10 10 9 9 8 8 7 6 5 5 4 4 5 6 5 5 4 5 5 4 3 4 3 4 3 3 3 3 3 3
2 6 5 7 6 8 6 5 6 9 5 8 3 6 9 10 10 13 7 5 4 4 6 10 8 2 1 4 8 8 8 14 16 18 17 15 15 14 12 10 7 5 4 4 10 14 14 14 14 14 13 12 12 11 11 10 9 9 9 9 9 9 7 7 6 5 4 4 4 5 5 5 5 3 2 2 4 4 4 5 4 3 3 4 3 3
5 3 5 4 7 7 6 7 8 9 11 1 5 4 2 4 4 4 6 3 5 3 8 12 11 4 1 9 14 16 15 17 13 11 12 13 14 14 14 12 10 7 6 4 6 11 14 13 14 12 14 13 11 10 10 10 10 9 10 10 10 9 7 7 7 6 6 4 4 5 6 6 6 5 4 4 3 3 3 4 4 4 5 3 4 3
4 4 3 3 7 4 6 5 6 11 8 4 1 3 7 4 6 7 5 6 4 5 5 7 13 7 3 3 9 12 4 11 16 18 19 18 17 15 14 11 9 7 6 6 5 8 11 11 11 12 13 12 12 11 11 9 9 10 10 10 11 8 7 6 7 7 6 5 5 4 6 7 7 6 5 6 6 5 5 5 5 4 2 3 3 2
3 5 3 5 3 12 3 5 4 6 3 5 3 6 9 2 3 2 8 1 3 7 4 7 8 0 8 6 6 12 6 6 13 13 17 16 14 14 14 13 10 7 7 6 4 6 9 12 13 12 12 12 11 12 12 12 11 10 10 11 11 10 8 8 7 8 6 5 5 5 6 6 6 6 6 6 5 5 6 5 4 3 5 3 3 4
6 2 2 4 4 4 6 7 4 4 6 8 7 8 7 4 4 2 1 2 3 8 1 5 9 4 3 4 1 5 14 7 9 9 9 15 16 15 15 12 7 4 5 4 4 6 9 11 12 14 13 13 12 13 13 12 11 10 10 11 12 11 9 7 7 7 6 6 5 5 6 6 5 5 5 6 6 5 5 5 6 6 6 6 6 5
1 4 6 3 2 3 6 9 8 5 8 8 5 11 8 7 5 4 4 8 7 5 2 8 7 4 3 2 5 7 7 10 7 9 10 13 13 12 7 4 2 1 1 2 2 2 9 10 12 12 13 13 12 13 12 11 11 11 11 11 11 10 8 8 8 7 7 6 5 4 4 5 5 5 5 5 5 5 5 5 5 6 5 6 6 6
4 5 6 5 4 2 9 5 6 5 3 2 5 6 7 7 6 8 10 8 5 3 4 4 3 1 2 3 4 2 5 7 7 6 9 12 10 8 8 8 5 3 8 9 7 6 1 9 9 10 12 12 11 13 12 12 11 11 11 11 12 12 11 10 9 8 8 7 6 5 5 5 5 4 4 3 3 3 4 5 6 6 5 6 5 4
2 1 3 6 2 3 6 7 3 8 6 4 6 6 6 7 10 4 1 1 4 5 1 0 2 3 4 3 8 6 8 7 7 6 8 9 9 9 6 5 10 11 8 5 3 2 2 3 8 10 10 10 11 12 12 13 12 13 12 11 11 10 9 10 10 9 8 7 6 6 6 5 4 4 4 5 4 5 4 4 5 6 6 5 4 5
1 6 5 2 4 3 2 5 4 3 6 5 3 6 1 2 4 6 5 1 2 4 3 1 1 3 1 1 5 6 8 6 7 6 7 7 9 9 10 13 11 8 7 7 8 6 2 2 6 6 7 9 11 13 13 13 12 12 12 13 13 11 11 10 10 9 9 9 8 7 7 6 6 5 4 3 4 3 4 4 4 3 4 5 6 5
2 2 3 2 2 7 2 3 5 1 1 5 4 4 3 2 3 1 6 3 4 1 1 2 1 2 1 1 1 2 4 7 8 9 10 10 11 12 12 11 12 11 9 6 6 7 6 6 7 6 7 9 8 8 9 9 10 10 10 12 13 14 13 13 10 9 8 8 7 7 7 7 5 4 4 4 3 3 5 6 6 5 6 6 5 5
1 1 4 1 1 2 2 3 4 1 3 2 4 2 0 3 2 3 4 4 6 5 3 2 2 2 1 1 1 0 1 4 7 9 10 12 14 12 13 13 12 12 10 9 8 7 6 4 3 6 9 8 5 4 4 4 4 7 8 10 10 8 4 3 3 3 5 6 6 6 5 5 5 5 6 6 6 6 6 6 6 6 5 6 5 5
1 1 1 5 5 1 2 1 4 7 5 1 3 2 0 1 1 3 2 2 6 7 4 6 1 4 1 2 4 3 1 2 9 10 8 9 12 12 12 11 9 8 8 8 7 5 4 2 0 1 0 2 4 4 4 5 5 5 6 8 9 11 7 6 5 6 4 4 3 4 6 6 5 5 5 6 6 7 7 6 6 6 6 4 5 5
2 2 0 4 5 1 1 1 1 5 8 5 5 1 2 1 2 3 1 1 2 6 5 5 4 3 3 0 2 5 1 5 8 12 11 10 10 9 7 7 6 5 3 4 4 3 2 1 3 3 1 3 5 5 7 6 8 8 10 12 11 8 6 9 9 7 5 4 6 6 5 4 3 3 3 3 3 4 5 5 5 5 4 5 6 5
0 1 2 2 1 1 2 6 2 2 0 4 6 1 3 2 4 3 3 2 4 2 5 2 6 4 1 2 2 4 4 6 6 10 11 9 9 9 9 9 7 5 5 5 6 4 5 6 6 5 3 3 5 6 8 9 8 6 8 10 11 12 11 9 6 4 6 7 7 7 7 7 6 6 5 5 4 4 4 4 4 3 5 6 6 5
2 3 5 3 6 6 4 4 2 7 4 5 5 2 2 1 1 3 2 6 6 3 5 2 2 2 1 2 3 4 7 7 6 8 12 9 7 7 8 9 9 9 7 7 6 5 5 5 6 6 6 3 4 6 9 10 8 7 8 8 8 9 8 6 5 4 4 5 5 6 7 7 6 7 6 5 4 4 4 4 4 4 4 4 4 5
1 2 3 1 2 3 6 8 9 6 7 3 1 4 2 1 4 3 6 2 7 5 6 9 6 4 2 3 3 7 10 9 9 6 9 12 7 7 7 6 7 8 8 8 8 7 8 7 6 5 4 3 3 7 9 9 10 10 9 8 7 6 7 6 6 6 5 7 7 6 5 5 5 5 5 5 4 4 2 1 1 2 4 5 5 4
5 2 3 2 4 3 2 3 4 6 5 5 1 5 5 4 3 2 2 1 4 1 4 4 3 1 3 3 5 6 9 9 7 8 7 7 8 8 6 6 6 7 8 9 9 9 8 7 7 7 7 7 5 6 7 8 8 6 6 8 6 5 4 3 3 4 6 6 8 7 7 5 4 4 5 4 4 4 3 3 2 2 2 3 6 5
2 1 6 4 5 5 2 2 3 2 2 5 6 4 7 2 4 4 5 4 6 4 4 2 5 12 9 10 9 9 8 11 10 8 9 8 7 6 4 5 5 6 7 10 9 8 8 8 9 9 8 8 6 4 4 3 4 5 10 13 14 11 8 6 6 6 6 6 6 6 6 6 6 5 4 4 5 3 3 4 4 3 3 2 2 3
3 6 9 3 3 1 2 1 4 2 1 2 4 6 5 8 3 2 4 2 6 11 1 1 9 17 13 11 9 9 8 9 9 9 8 7 7 7 6 6 7 7 7 7 9 9 8 7 7 8 9 8 5 3 4 5 6 6 6 9 9 8 6 5 6 6 3 2 3 4 5 5 5 5 5 4 3 3 3 3 3 4 4 3 3 3
3 4 6 2 4 3 7 9 4 2 1 0 4 6 9 6 4 3 0 4 7 7 9 8 14 14 15 12 9 8 9 9 10 9 8 8 8 7 7 7 7 7 6 8 7 7 8 8 8 8 8 6 6 7 6 6 7 7 3 3 3 4 5 5 3 1 3 1 3 5 4 3 2 2 2 2 3 3 3 2 2 3 3 3 3 3
3 3 1 3 2 9 11 11 8 4 5 7 10 8 8 9 4 6 6 3 3 0 4 15 9 3 3 8 9 8 8 10 9 8 9 9 9 8 7 7 7 6 6 6 6 7 7 8 7 6 5 6 6 6 6 5 4 4 7 6 6 5 6 6 7 7 7 7 6 3 1 3 4 1 1 1 0 1 1 1 1 2 3 3 4 4
3 1 4 4 2 5 10 11 9 7 8 7 10 13 13 8 5 4 4 5 12 11 11 13 9 5 2 5 10 9 8 8 10 11 9 9 8 8 8 8 7 7 6 6 5 7 8 7 7 7 7 6 5 6 6 6 6 6 7 7 6 6 7 6 5 4 5 7 6 6 6 3 2 2 3 3 3 1 1 2 2 2 3 3 3 3
6 1 3 2 4 5 7 12 9 7 6 10 13 16 16 13 4 2 1 2 5 8 11 10 8 5 4 6 10 9 10 12 13 11 10 8 8 9 9 8 8 8 6 6 6 5 7 8 8 9 8 6 4 5 5 4 4 7 7 7 7 6 6 6 7 9 7 6 5 5 5 5 4 3 4 3 3 2 2 3 3 2 2 2 3 3
2 1 2 2 1 2 4 7 7 4 6 9 10 9 9 7 5 1 3 5 4 18 12 9 9 5 10 10 12 10 12 10 11 12 11 9 8 9 10 9 8 7 7 5 5 4 5 6 7 8 7 5 4 5 4 4 5 6 7 8 7 7 8 7 7 6 5 4 5 5 5 5 4 3 4 4 4 4 4 4 3 3 3 4 3 2
2 4 2 1 3 4 7 8 5 6 6 1 4 5 3 4 3 8 4 5 3 4 2 1 8 12 11 12 14 14 13 12 11 6 6 12 11 9 7 7 8 8 7 7 7 7 5 5 5 4 5 5 5 5 5 5 6 6 7 7 6 8 8 8 7 6 6 6 5 5 5 4 4 5 5 4 4 4 4 5 5 4 3 3 4 4
3 2 1 1 3 1 7 8 8 5 1 3 7 6 4 2 10 10 10 12 10 5 8 12 11 12 10 9 10 9 8 8 8 11 10 8 10 10 10 8 8 9 9 7 7 7 7 7 6 5 6 7 6 4 4 5 5 6 6 6 8 7 7 6 5 5 6 6 6 6 5 4 4 4 4 3 3 5 5 4 5 6 5 5 5 5
2 2 0 3 2 3 6 4 2 3 3 7 8 4 4 2 6 5 7 10 11 9 1 10 5 6 7 10 10 10 13 12 10 7 8 7 10 12 10 8 6 6 6 5 6 6 6 7 6 6 5 3 4 4 4 3 3 6 6 5 6 6 6 6 6 7 7 8 8 8 7 6 5 4 4 4 3 3 3 3 4 4 4 4 6 6
4 3 3 1 1 2 5 7 4 2 3 4 4 5 5 3 4 2 1 3 6 6 5 4 7 7 10 9 10 11 13 13 10 4 2 8 7 8 11 9 8 7 6 6 7 7 6 7 8 8 7 6 5 5 4 4 6 7 6 6 6 6 6 6 7 7 6 7 7 7 6 7 7 7 7 6 6 7 5 4 2 2 2 3 2 2
3 3 2 4 1 3 4 3 3 3 1 5 2 4 1 3 2 2 3 1 4 6 3 7 7 8 11 11 11 11 12 13 7 3 3 4 8 10 8 8 8 8 9 9 9 10 9 8 9 8 8 9 8 5 5 6 7 7 7 7 7 8 7 7 7 5 6 6 6 6 5 6 6 7 6 6 7 6 6 5 5 4 1 1 3 1
5 6 5 6 1 3 4 4 2 4 4 4 8 6 6 2 4 1 2 1 1 1 3 4 12 9 9 11 11 11 11 8 6 6 4 5 7 9 10 8 10 9 9 9 10 11 10 8 9 8 9 10 9 6 5 7 9 9 8 7 7 7 7 7 6 6 6 5 5 4 4 5 5 5 5 6 6 6 7 6 6 5 5 4 3 3
6 6 6 7 4 2 3 2 0 2 1 2 6 7 8 5 3 3 1 3 3 1 2 5 9 8 6 7 6 6 4 9 12 9 6 6 7 5 10 12 11 11 9 9 9 9 8 7 11 11 10 9 5 4 6 8 9 8 6 6 6 8 7 6 4 3 4 5 5 5 5 5 5 5 5 6 6 6 6 5 6 6 6 5 4 4
3 3 5 1 1 1 3 0 1 2 2 3 4 9 10 4 1 1 3 2 2 5 4 6 12 13 11 7 3 7 2 1 2 4 6 7 9 7 5 7 8 9 10 10 9 9 10 9 10 9 7 5 5 6 6 7 9 7 5 5 7 7 5 3 4 5 6 6 6 7 7 6 6 6 6 5 4 4 4 5 5 6 6 6 6 5
2 0 1 3 4 1 0 1 2 3 4 2 6 5 4 3 1 2 2 2 3 4 4 4 9 9 10 9 7 9 9 12 9 3 7 7 10 9 8 9 9 9 8 7 9 9 9 9 9 9 8 6 7 6 6 7 8 5 5 6 7 4 3 3 5 5 6 6 7 7 7 7 7 6 6 5 5 6 6 5 4 4 5 5 5 6
0 1 0 1 0 1 3 2 2 1 0 1 9 3 3 1 3 2 1 1 2 5 6 5 5 7 7 6 5 7 14 17 15 12 7 7 10 11 10 9 10 10 10 9 8 7 10 9 9 8 6 5 5 5 5 7 7 5 5 7 4 3 4 4 5 5 5 6 7 6 7 6 7 6 5 6 6 5 6 5 6 6 6 6 6 6
1 2 1 1 2 1 1 1 1 2 4 3 3 1 2 2 2 2 3 1 2 4 8 7 5 4 4 9 10 8 9 13 13 13 10 9 9 9 9 9 9 9 8 7 8 8 9 10 7 7 5 5 5 5 5 6 5 4 5 5 4 4 4 4 4 4 6 5 5 5 6 5 5 6 6 7 7 6 7 7 6 5 6 6 6 6
2 0 4 1 1 1 1 2 4 4 5 5 1 2 2 3 0 3 3 1 2 2 1 4 4 3 3 1 8 13 13 13 13 11 14 12 11 10 11 10 11 10 10 9 8 7 8 10 8 7 6 5 5 4 4 4 5 5 6 5 4 4 4 4 4 5 5 5 5 6 4 5 4 5 6 6 6 6 7 6 6 6 6 6 6 6
0 1 1 2 1 1 1 4 3 3 3 6 4 2 3 3 2 2 2 4 2 0 3 8 5 6 8 9 10 7 4 3 11 11 11 11 10 7 7 9 10 9 8 8 7 7 7 7 7 7 6 5 4 5 5 5 6 6 3 3 4 4 4 4 5 5 5 5 5 4 4 5 4 5 5 5 5 4 4 4 5 5 5 5 5 5
2 0 1 1 1 2 1 2 4 4 4 4 5 6 3 3 2 1 3 4 3 4 6 5 10 11 9 9 11 12 8 6 7 2 8 9 10 9 9 10 9 9 10 10 7 7 7 6 7 6 5 4 4 5 5 5 5 4 4 5 4 5 4 5 5 5 5 6 5 4 4 5 4 4 5 4 5 5 5 5 5 4 4 5 5 5
2 1 1 0 0 1 1 1 3 3 1 1 3 6 5 8 7 6 2 3 4 4 4 4 7 7 7 10 13 16 15 14 6 4 2 4 7 7 7 8 8 7 6 7 7 7 6 7 6 5 5 5 4 4 4 4 4 3 4 4 4 4 5 5 5 5 5 6 5 6 5 5 9 8 5 4 5 5 6 5 5 6 6 6 6 5
1 1 2 2 1 3 4 4 3 0 0 3 3 3 3 3 3 4 5 3 5 7 5 4 4 6 9 9 10 12 14 12 12 11 8 4 5 5 6 6 6 7 7 7 6 7 7 6 6 5 5 4 3 4 4 4 3 3 4 3 3 4 4 4 4 5 5 5 5 5 5 5 5 5 5 5 4 4 4 5 5 6 5 4 4 5
0 2 1 1 1 3 4 2 1 1 1 1 3 3 4 4 4 5 5 5 6 3 4 7 4 3 4 7 11 12 14 11 11 12 12 10 10 9 8 7 7 7 6 6 6 6 6 5 6 6 5 4 3 4 4 3 2 2 3 3 3 3 4 3 3 4 4 4 5 4 5 5 5 5 6 6 5 6 5 6 5 4 5 5 7 10
3 5 4 3 5 3 5 6 3 2 1 3 2 1 0 0 4 6 5 4 5 4 4 2 8 4 5 5 5 9 9 10 8 6 7 6 6 6 8 9 8 6 7 5 5 4 6 6 6 6 5 4 4 4 3 2 1 1 3 3 2 3 3 2 2 2 3 3 4 5 5 5 5 5 5 6 6 6 7 7 4 5 8 7 9 9
Wind_Direction
143 178 205 205 202 213 182 160 174 182 81 100 42 152 173 184 209 181 140 160 156 138 164 169 146 162 171 171 160 173 175 169 174 177 181 187 188 194 183 183 182 182 183 174 175 175 174 171 172 168 156 166 163 165 170 171 172 173 172 163 173 182 172 160 157 151 150 148 141 139 166 174 178 175 169 171 174 177 183 177 174 177 177 174 177 168
103 199 234 219 193 196 196 165 154 118 49 197 100 140 190 177 202 179 110 155 160 152 98 135 148 170 171 169 160 166 166 174 184 186 191 195 190 196 191 184 184 179 173 170 173 176 173 170 170 162 155 161 161 174 171 174 176 177 169 172 177 175 170 170 166 161 162 163 168 164 176 162 167 160 165 180 190 187 183 178 175 182 182 180 180 163
188 212 238 218 210 207 156 129 127 152 172 278 130 184 147 208 82 84 131 158 152 98 144 141 147 168 171 159 159 171 186 183 186 185 187 189 186 192 201 190 179 167 179 175 174 174 174 172 168 163 160 171 171 173 175 176 172 172 172 175 176 178 173 176 169 160 167 169 171 159 165 160 158 186 178 176 179 175 175 182 182 182 182 178 182 176
242 264 238 235 183 188 271 150 114 90 124 180 115 140 192 179 145 151 169 160 154 152 154 153 136 163 156 161 166 161 157 169 175 176 154 188 186 193 195 193 180 175 175 179 174 176 174 171 170 167 164 173 173 173 174 174 174 172 171 175 176 178 178 173 171 171 174 166 172 161 156 162 160 169 154 134 150 166 155 177 187 191 181 181 181 178
222 251 213 172 183 176 230 250 126 173 260 196 168 184 141 179 201 143 163 148 84 63 124 112 102 128 202 175 159 161 147 148 161 139 125 217 197 184 163 283 216 180 179 176 174 176 173 172 174 173 169 167 173 177 178 177 176 174 173 179 178 175 179 177 170 163 161 146 119 85 80 105 72 74 115 116 149 175 179 167 179 197 190 180 183 183
266 271 72 111 206 207 206 273 214 145 222 321 220 202 187 183 120 114 140 142 103 76 182 136 107 213 209 197 181 158 160 178 166 176 209 234 203 187 196 228 240 201 178 173 177 177 174 174 173 172 168 170 175 180 184 180 177 168 172 175 177 170 170 175 169 159 152 153 146 129 140 151 152 145 156 174 174 179 181 190 186 181 190 182 179 183
217 248 146 214 200 222 221 228 193 148 173 82 269 197 173 160 134 142 150 137 175 186 191 176 131 229 273 209 202 205 178 183 171 190 199 205 205 196 199 207 227 206 181 173 172 172 173 175 172 173 174 176 177 183 179 178 174 168 168 174 175 173 173 177 164 163 153 137 150 163 170 171 172 169 204 195 181 173 191 169 176 186 190 187 182 189
171 262 185 214 185 190 216 247 211 146 125 233 244 142 152 141 147 162 163 167 104 75 149 187 115 144 195 229 189 186 203 190 193 199 202 204 206 197 199 202 214 213 189 170 174 174 175 174 174 176 177 177 180 174 172 174 169 167 170 172 177 174 173 176 164 164 165 157 158 162 175 176 176 179 189 189 193 180 164 174 190 180 194 192 192 188
176 232 202 219 197 194 217 217 183 152 157 222 196 152 163 163 169 167 161 150 124 104 164 206 154 54 225 247 165 176 200 199 202 204 204 198 202 201 196 197 202 191 183 175 172 176 175 177 178 173 176 179 172 169 172 174 172 170 171 174 175 177 175 178 172 167 178 164 163 167 172 183 197 188 191 187 179 170 173 180 189 191 201 199 203 196
262 208 213 194 174 224 222 217 189 167 181 260 162 187 180 176 164 158 152 115 128 96 206 209 192 156 273 183 161 191 212 205 201 200 201 195 194 198 200 193 189 181 148 158 185 174 177 177 177 176 170 171 176 174 172 169 163 167 170 175 176 181 179 179 177 173 179 172 159 164 178 184 199 200 181 170 181 178 170 184 194 198 204 214 212 213
240 262 197 166 204 212 198 214 182 184 206 162 139 147 92 59 76 58 38 23 80 209 231 202 188 175 188 196 181 174 211 199 181 192 200 198 195 198 201 191 187 186 172 154 173 187 176 177 173 166 173 176 171 170 169 166 167 169 173 177 179 184 181 180 184 177 185 176 173 182 181 188 191 193 171 178 208 175 167 188 198 196 212 208 220 211
277 260 237 228 193 216 173 221 189 194 201 150 116 120 85 21 36 39 15 357 98 250 261 187 196 180 207 232 206 217 54 180 188 190 191 190 193 197 199 194 189 180 174 165 153 186 178 169 172 170 173 173 172 168 171 170 167 172 178 177 180 183 182 184 187 185 188 178 185 189 184 190 194 182 177 186 193 190 193 193 196 207 198 224 223 218
295 218 220 244 208 190 162 189 252 190 141 168 102 126 139 183 55 284 26 24 228 206 262 173 150 242 247 220 200 207 245 181 196 195 190 187 191 196 200 197 188 181 173 164 155 166 179 174 172 176 176 173 170 174 176 173 173 175 178 179 178 187 185 185 184 191 193 184 185 186 188 190 185 181 180 186 187 188 195 195 195 182 208 211 218 221
277 277 254 234 264 198 157 171 220 168 177 152 158 157 145 130 147 155 172 311 307 272 209 150 167 216 255 290 239 212 198 193 185 193 179 181 188 195 199 197 183 179 180 154 147 170 181 182 178 176 176 177 178 178 176 175 175 176 179 181 184 188 185 181 180 188 191 196 188 183 185 183 176 178 173 183 181 186 194 189 194 193 198 199 209 203
78 226 275 169 242 196 171 192 178 167 163 187 140 161 174 149 152 152 170 187 216 212 322 145 130 233 146 228 312 269 215 172 173 176 174 177 188 189 185 178 147 141 140 67 55 202 186 189 182 179 179 180 180 179 177 176 178 177 178 181 187 183 185 179 182 180 189 194 187 186 187 176 178 180 173 179 181 172 177 192 193 203 195 199 210 202
197 213 254 226 228 161 175 198 148 109 93 199 150 85 125 201 139 163 181 193 203 138 94 154 192 251 197 278 312 300 152 141 144 144 148 165 166 162 165 172 169 71 50 41 49 24 242 188 191 182 183 183 182 180 178 179 178 179 182 183 186 184 183 182 181 185 187 189 176 181 185 182 177 180 179 181 172 175 180 180 187 197 198 205 204 212
19 310 261 301 306 181 207 136 207 142 190 221 125 164 204 180 150 108 25 222 79 60 238 113 336 307 291 359 11 35 81 82 99 114 135 146 151 149 151 105 83 84 83 102 96 170 241 190 174 187 190 185 184 181 182 183 181 182 180 182 186 186 183 184 185 185 184 180 176 185 188 181 171 170 179 194 196 184 185 189 190 188 200 200 199 206
145 257 298 77 254 266 219 166 157 165 147 115 148 227 130 89 108 126 165 77 76 145 232 46 204 300 31 235 331 57 77 76 95 113 111 114 125 122 96 99 113 121 139 157 173 200 196 208 164 163 180 189 190 188 186 185 182 183 181 182 182 181 185 191 187 186 184 181 184 184 187 188 183 176 179 187 203 188 174 191 203 198 191 201 204 200
111 349 290 237 233 274 329 73 74 29 61 145 182 200 130 229 231 319 113 155 136 133 195 327 315 253 159 269 333 26 91 98 94 102 104 101 96 103 119 130 133 140 149 157 178 189 202 200 175 152 165 183 194 194 191 186 181 181 187 186 182 183 186 186 187 189 190 187 186 185 188 186 187 181 174 177 187 184 186 192 195 196 203 203 200 203
26 168 296 293 87 291 29 69 202 283 334 40 89 47 263 109 156 142 200 158 115 160 113 285 43 232 234 214 61 171 80 99 97 89 99 108 113 115 119 135 148 162 164 166 178 199 198 198 190 169 176 180 164 152 144 149 172 197 194 187 187 180 154 128 144 170 187 189 182 179 176 189 187 187 182 181 180 189 195 198 194 203 203 210 199 203
254 110 239 285 321 74 186 358 190 168 150 63 38 346 213 17 210 117 74 105 155 152 184 141 248 267 262 234 171 169 105 94 108 98 89 94 109 121 130 140 152 161 160 161 189 207 212 206 83 53 42 99 102 106 88 79 71 63 53 40 38 65 77 107 145 151 141 141 175 173 185 192 191 198 196 191 190 192 196 196 199 201 208 200 212 205
32 19 289 317 8 18 235 240 221 173 158 145 147 161 170 129 164 128 249 11 91 118 166 152 217 269 270 291 207 135 125 92 102 108 106 106 109 117 123 127 132 137 138 132 147 162 169 63 52 27 46 89 98 102 105 94 86 92 102 111 117 139 188 180 188 163 132 158 168 168 163 154 148 162 175 206 213 212 204 203 200 206 206 208 220 204
123 175 74 315 190 278 289 285 309 189 30 126 110 53 155 139 106 96 144 240 62 36 73 92 125 267 257 319 152 132 111 106 103 107 103 103 108 112 112 114 118 120 122 144 143 125 87 67 51 42 29 75 105 108 107 99 95 96 108 122 143 148 173 195 194 144 159 177 177 169 167 166 173 172 175 180 186 205 215 209 209 206 209 215 222 215
172 34 8 301 318 296 306 279 310 47 71 34 9 5 60 38 171 166 181 170 119 139 87 10 67 274 300 47 121 113 98 92 87 102 110 104 101 97 101 98 95 90 78 77 76 81 85 87 69 66 29 16 97 111 113 121 134 149 135 129 137 151 172 173 116 93 178 198 184 174 172 177 177 176 174 176 174 188 199 195 194 189 209 228 235 225
43 324 111 329 13 338 346 358 4 351 46 73 328 318 303 9 79 125 109 54 100 205 170 139 184 237 206 105 95 123 118 113 112 103 113 114 103 96 90 84 87 87 82 75 73 77 85 76 61 64 81 33 95 110 119 139 162 178 151 130 127 157 183 163 145 148 178 201 197 186 180 176 176 184 183 177 172 184 180 205 223 207 203 209 222 231
83 317 61 83 127 101 52 33 1 343 321 298 298 335 0 42 106 103 105 26 104 233 115 119 131 328 92 108 142 140 127 114 110 109 88 97 112 109 100 94 87 91 91 89 82 72 79 83 77 61 58 65 67 114 137 153 162 167 124 114 134 199 194 138 129 148 176 195 197 190 187 181 175 186 194 200 197 193 197 202 210 238 266 220 217 221
103 47 64 95 125 150 200 219 251 222 338 41 297 15 346 5 34 101 104 97 158 182 137 230 169 148 158 176 172 161 143 131 128 121 115 110 97 84 83 80 80 83 90 91 89 86 77 65 65 63 60 61 51 55 86 100 118 111 120 143 169 186 184 168 177 178 178 187 197 186 178 178 190 190 195 209 214 202 203 219 222 220 238 258 262 223
57 54 13 53 43 70 239 217 273 283 125 297 28 354 346 5 353 86 123 213 158 108 294 264 168 153 182 174 173 156 140 130 130 127 120 111 108 109 100 91 85 80 78 83 89 86 79 68 57 67 74 73 67 58 70 80 78 87 130 155 168 170 170 175 181 184 158 178 208 193 174 181 187 190 203 211 210 206 206 210 221 223 223 220 250 265
108 82 323 340 20 360 30 30 13 57 71 185 47 40 22 340 21 106 235 160 144 143 188 183 174 173 176 174 156 147 144 138 135 133 128 123 114 108 101 96 94 92 88 86 88 87 88 83 80 74 73 76 83 78 70 73 94 106 102 178 128 111 156 167 181 162 106 92 344 331 339 307 240 195 195 196 200 211 213 206 224 244 241 226 229 234
87 59 340 331 326 15 17 26 8 49 26 25 16 24 27 32 12 88 78 40 57 148 144 142 149 62 118 145 145 141 142 133 126 120 119 121 122 114 106 99 95 92 91 92 92 94 95 94 88 79 73 67 68 75 72 71 63 84 138 159 130 150 111 122 172 178 160 146 134 97 51 281 294 343 71 75 53 358 332 284 253 253 258 251 234 231
102 108 91 330 49 350 8 11 15 8 53 33 7 16 14 13 46 51 88 88 75 64 104 119 118 119 291 138 129 139 128 121 120 127 127 125 123 116 109 105 99 94 92 90 94 100 102 103 99 94 88 80 68 60 69 74 74 77 70 73 90 97 117 137 133 107 73 71 86 104 102 90 12 30 62 66 71 42 347 311 299 291 282 279 269 256
55 130 74 56 49 331 1 358 341 337 357 43 14 9 357 350 15 5 12 241 116 133 122 105 117 164 195 152 130 128 137 138 137 133 130 131 125 121 117 115 112 109 103 102 102 99 99 96 96 100 104 95 66 52 49 53 68 75 66 65 66 66 86 79 73 62 50 65 67 61 86 99 91 57 56 60 57 60 63 60 45 5 331 310 292 275
357 114 68 71 53 267 306 353 336 15 22 21 352 344 329 297 274 311 17 12 155 140 126 152 204 155 158 150 135 143 143 142 137 141 136 130 130 128 129 127 122 118 117 115 104 94 89 93 97 97 95 90 77 74 54 52 55 62 72 69 63 66 61 55 63 86 101 76 71 55 45 64 71 73 60 56 47 24 27 52 61 41 6 341 314 306
13 73 108 171 120 252 339 355 22 52 56 269 249 327 321 313 29 59 9 16 13 344 225 247 134 137 149 151 150 155 153 154 150 141 137 138 134 125 115 115 113 111 111 109 111 105 88 76 86 106 109 96 89 84 87 84 82 76 73 77 81 82 80 78 64 66 66 60 62 72 76 71 68 57 51 36 43 52 33 15 33 40 19 354 358 3
26 40 57 62 111 329 353 21 40 39 243 249 324 320 316 355 66 77 63 35 359 7 89 96 122 142 153 141 138 129 114 106 109 119 124 130 127 128 128 123 121 121 123 126 121 102 94 92 89 90 89 90 86 75 66 62 71 84 75 73 76 72 78 74 78 62 58 50 37 34 34 45 61 60 53 51 43 47 44 28 14 27 21 5 360 358
23 68 289 36 78 65 51 35 88 232 266 300 302 309 338 96 31 37 25 24 6 352 348 127 118 106 109 112 109 114 113 107 93 91 122 134 135 133 128 128 122 113 113 119 112 99 94 91 95 91 85 73 75 63 65 70 68 73 67 62 68 66 66 69 64 58 53 51 41 33 24 23 26 34 41 38 28 43 50 30 7 5 13 15 355 359
127 100 84 82 43 131 148 152 192 294 336 337 6 352 29 350 348 15 224 310 353 345 357 99 101 98 96 97 106 109 111 102 93 67 111 132 128 123 125 123 119 115 110 96 89 80 73 79 83 87 84 73 65 72 74 68 64 68 69 68 67 68 57 56 53 48 46 45 39 34 26 27 33 33 30 27 27 20 8 354 334 357 37 28 342 3
52 94 217 96 323 110 120 55 19 24 298 274 227 270 308 278 252 205 116 336 333 343 20 99 97 111 111 111 115 119 112 102 105 153 176 143 131 117 100 104 105 103 101 100 93 84 73 74 77 72 80 76 61 53 70 76 78 74 65 59 55 57 52 48 43 41 46 44 39 35 25 29 37 38 29 28 23 10 2 356 350 338 347 282 272 240
21 81 103 103 139 38 44 110 173 147 228 227 292 300 307 315 305 121 73 297 284 355 339 112 115 114 114 122 132 136 126 129 167 181 200 156 131 121 113 107 104 101 102 102 100 93 83 77 79 77 68 63 56 36 63 76 72 68 60 53 53 54 50 41 35 32 35 35 38 40 36 33 40 38 33 25 12 5 359 354 347 340 333 304 278 260
32 356 23 38 39 90 132 90 175 202 98 333 291 306 307 345 286 70 26 276 231 196 168 117 95 93 96 104 95 45 79 149 173 186 180 152 123 105 121 123 115 109 101 97 90 96 94 84 73 61 61 64 57 52 63 69 71 67 61 50 49 47 39 27 20 18 37 37 35 35 31 28 25 24 26 16 3 357 351 345 345 345 336 323 309 292
357 348 49 108 139 41 81 267 345 321 289 269 282 305 308 308 75 106 190 238 236 181 199 160 147 151 147 127 97 119 131 153 11 113 125 117 100 94 96 101 108 110 112 108 108 100 88 81 83 80 69 65 73 75 71 77 73 65 60 57 51 39 19 3 7 20 24 25 27 24 22 19 17 11 7 8 360 345 347 350 343 337 340 336 334 331
348 91 344 60 37 7 189 110 215 232 241 235 287 277 281 0 351 219 236 201 172 201 218 208 159 157 152 140 129 118 109 80 66 89 139 139 129 128 120 114 103 92 87 94 97 93 93 90 86 83 71 58 60 58 63 70 73 67 56 51 42 12 350 18 22 25 27 28 24 19 18 14 9 17 12 5 8 7 1 353 350 349 348 345 346 347
227 81 289 40 253 51 35 62 27 59 281 23 318 350 25 98 229 207 226 300 203 199 191 211 194 167 157 125 117 141 136 139 151 164 158 143 133 132 130 120 112 112 111 105 93 93 98 90 81 76 77 66 64 65 67 74 68 56 50 45 11 342 10 25 29 32 37 33 27 21 14 10 14 16 16 18 16 20 19 7 9 9 12 13 9 7
200 72 310 291 183 138 72 89 146 212 249 311 25 153 273 198 216 174 127 331 304 177 192 179 221 199 174 143 139 143 142 140 151 149 145 146 138 130 123 118 114 108 101 97 106 109 99 96 90 82 68 61 61 62 65 76 73 56 46 16 335 1 15 24 27 43 44 36 29 22 15 10 15 19 20 19 15 19 20 14 12 15 16 13 13 9
254 167 177 127 246 104 204 215 253 268 252 282 255 264 249 287 251 175 127 156 154 132 157 164 159 64 34 89 144 147 152 158 155 156 147 152 146 142 137 133 124 118 118 116 113 107 101 106 104 95 75 59 60 54 56 58 69 52 30 349 356 14 18 19 32 47 38 31 27 24 11 10 23 27 21 21 19 21 14 9 10 13 8 11 10 10
268 225 173 88 230 251 239 206 275 322 350 339 352 344 306 334 359 45 114 91 13 131 143 141 117 99 92 93 91 38 35 130 148 155 148 145 139 130 119 113 107 111 112 108 104 102 107 104 100 97 91 61 51 54 52 49 57 57 14 359 23 24 30 38 38 33 29 27 27 24 21 20 19 29 16 15 17 20 16 8 3 6 1 9 5 5
276 127 82 108 293 68 269 302 15 348 329 8 344 331 352 10 332 359 76 88 124 120 117 139 135 131 128 119 122 121 103 12 333 193 149 137 136 137 135 127 127 131 126 120 126 118 108 107 104 102 96 83 42 61 61 66 60 67 46 36 17 19 22 36 37 32 25 19 13 14 22 24 12 29 7 6 1 2 2 357 3 1 2 3 357 355
332 166 65 191 87 131 222 257 294 288 248 334 40 32 357 336 343 5 345 123 116 98 99 116 122 124 145 153 157 151 148 146 151 300 318 116 127 129 126 126 127 120 120 127 131 121 117 117 121 119 108 93 83 86 85 72 67 55 54 38 32 31 39 35 31 36 26 19 10 8 3 15 4 9 360 358 359 360 354 356 356 359 350 347 343 345
191 26 266 174 194 280 309 303 310 309 19 356 10 37 352 334 351 12 360 356 99 98 85 81 104 153 158 155 154 147 147 157 154 160 159 142 125 123 131 135 136 135 134 130 139 134 135 137 132 131 116 118 124 108 93 88 67 57 58 51 47 60 61 47 38 36 25 16 16 3 358 4 358 357 359 354 1 0 348 346 355 346 332 321 318 333
63 248 230 66 320 309 225 250 99 111 273 298 341 344 0 350 41 32 19 19 9 43 112 117 67 70 117 140 149 154 152 154 164 162 158 161 159 158 152 150 148 145 152 156 151 142 135 130 128 123 122 129 133 115 105 90 66 40 60 48 45 59 68 61 57 47 19 9 7 349 354 0 355 354 356 356 352 352 347 358 344 320 322 314 323 326
169 214 134 164 163 235 247 236 197 148 185 228 221 276 235 19 63 51 34 5 347 21 6 100 122 100 131 143 154 147 149 153 163 153 144 154 161 160 157 149 147 149 157 160 120 97 112 125 127 125 129 150 146 124 125 113 44 16 17 54 69 90 93 79 67 51 14 3 348 343 353 357 354 352 353 350 352 347 343 333 331 303 290 286 296 305